FW7042 Weather Reports


time (UTC)temp
C
wind
direction
speed
KPH
gust
KPH
rain 1hr
cm
rain 24hr
cm
rain mn
cm
humidity
%
barometer
mb
20260506020131 24 158 8.0 11.3 0.00 0.00 0.00 28 1009.1
20260506015628 24 253 9.7 16.1 0.00 0.00 0.00 27 1008.9
20260506015125 25 265 14.5 17.7 0.00 0.00 0.00 27 1008.7
20260506014623 25 235 14.5 16.1 0.00 0.00 0.00 26 1008.9
20260506014118 25 242 17.7 25.7 0.00 0.00 0.00 26 1008.7
20260506013617 25 216 12.9 20.9 0.00 0.00 0.00 26 1008.5
20260506013113 25 233 6.4 12.9 0.00 0.00 0.00 27 1008.5
20260506012609 25 230 8.0 14.5 0.00 0.00 0.00 27 1008.3
20260506012106 25 225 4.8 4.8 0.00 0.00 0.00 27 1008.4
20260506011604 25 223 6.4 9.7 0.00 0.00 0.00 27 1008.0
20260506011100 25 227 3.2 3.2 0.00 0.00 0.00 27 1008.0
20260506010559 25 236 3.2 4.8 0.00 0.00 0.00 27 1008.1
20260506010056 25 236 0.0 1.6 0.00 0.00 0.00 26 1008.1
20260506005553 25 200 6.4 9.7 0.00 0.00 0.00 26 1007.9
20260506005049 25 107 6.4 9.7 0.00 0.00 0.00 26 1007.9
20260506004546 25 230 3.2 4.8 0.00 0.00 0.00 25 1007.9
20260506004043 25 162 8.0 11.3 0.00 0.00 0.00 25 1007.6
20260506003539 26 192 9.7 12.9 0.00 0.00 0.00 25 1008.1
20260506003036 26 234 11.3 16.1 0.00 0.00 0.00 24 1008.2
20260506002532 26 266 6.4 9.7 0.00 0.00 0.00 24 1008.0
20260506002027 26 253 9.7 12.9 0.00 0.00 0.00 23 1008.0
20260506001524 26 250 6.4 8.0 0.00 0.00 0.00 22 1007.9
20260506001021 26 202 6.4 9.7 0.00 0.00 0.00 22 1008.1
20260506000519 26 235 6.4 9.7 0.00 0.00 0.00 22 1008.1
20260506000016 26 246 6.4 11.3 0.00 0.00 0.00 22 1007.9
20260505235514 26 268 1.6 3.2 0.00 0.00 0.00 21 1008.0
20260505235010 26 206 8.0 9.7 0.00 0.00 0.00 22 1007.9
20260505234508 26 200 8.0 12.9 0.00 0.00 0.00 22 1007.8
20260505234004 26 230 4.8 4.8 0.00 0.00 0.00 23 1008.0
20260505233502 26 166 9.7 12.9 0.00 0.00 0.00 22 1008.0
20260505232959 26 216 6.4 9.7 0.00 0.00 0.00 23 1007.9
20260505232457 26 235 4.8 8.0 0.00 0.00 0.00 23 1008.1
20260505231954 27 331 9.7 20.9 0.00 0.00 0.00 24 1007.9
20260505231451 27 152 4.8 8.0 0.00 0.00 0.00 23 1008.0
20260505230949 27 201 4.8 16.1 0.00 0.00 0.00 24 1007.8
20260505230447 27 246 14.5 25.7 0.00 0.00 0.00 24 1007.9
20260505225943 27 231 8.0 11.3 0.00 0.00 0.00 23 1008.2
20260505225440 26 63 3.2 3.2 0.00 0.00 0.00 23 1008.2
20260505224936 26 250 14.5 22.5 0.00 0.00 0.00 23 1008.0
20260505224433 26 222 9.7 20.9 0.00 0.00 0.00 24 1008.1
20260505223930 26 257 8.0 14.5 0.00 0.00 0.00 23 1008.1
20260505223427 26 261 9.7 16.1 0.00 0.00 0.00 23 1008.0
20260505222923 26 274 14.5 20.9 0.00 0.00 0.00 23 1008.1
20260505222420 26 226 11.3 17.7 0.00 0.00 0.00 24 1008.2
20260505221916 26 242 8.0 14.5 0.00 0.00 0.00 23 1008.2
20260505221413 26 237 9.7 12.9 0.00 0.00 0.00 23 1008.2
20260505220910 26 190 4.8 8.0 0.00 0.00 0.00 23 1008.2
20260505220407 26 215 8.0 11.3 0.00 0.00 0.00 23 1008.1
20260505215905 26 216 8.0 14.5 0.00 0.00 0.00 24 1008.2
20260505215403 26 237 1.6 3.2 0.00 0.00 0.00 24 1008.1
20260505214900 26 290 0.0 0.0 0.00 0.00 0.00 24 1008.2
20260505214358 26 142 6.4 8.0 0.00 0.00 0.00 24 1008.3
20260505213855 26 217 1.6 1.6 0.00 0.00 0.00 24 1008.5
20260505213353 26 222 0.0 0.0 0.00 0.00 0.00 24 1008.5
20260505212848 26 251 1.6 1.6 0.00 0.00 0.00 25 1008.6
20260505212346 25 218 0.0 0.0 0.00 0.00 0.00 26 1008.7
20260505211842 25 139 1.6 1.6 0.00 0.00 0.00 25 1008.5
20260505211340 25 92 3.2 3.2 0.00 0.00 0.00 25 1008.6
20260505210836 25 180 4.8 4.8 0.00 0.00 0.00 25 1008.6
20260505210333 26 107 3.2 4.8 0.00 0.00 0.00 25 1008.4
20260505205829 26 179 1.6 3.2 0.00 0.00 0.00 24 1009.0
20260505205328 25 190 0.0 0.0 0.00 0.00 0.00 25 1009.2
20260505204824 25 233 1.6 1.6 0.00 0.00 0.00 24 1009.2
20260505204322 25 193 1.6 3.2 0.00 0.00 0.00 25 1009.1
20260505203820 26 218 0.0 0.0 0.00 0.00 0.00 25 1009.1
20260505203316 26 220 1.6 1.6 0.00 0.00 0.00 24 1009.1
20260505202812 26 222 1.6 1.6 0.00 0.00 0.00 24 1009.2
20260505202308 26 201 0.0 0.0 0.00 0.00 0.00 24 1009.2
20260505201805 26 215 0.0 1.6 0.00 0.00 0.00 24 1009.2
20260505201303 26 130 1.6 1.6 0.00 0.00 0.00 23 1009.3
20260505200801 26 88 3.2 4.8 0.00 0.00 0.00 24 1009.5
20260505200258 26 148 1.6 3.2 0.00 0.00 0.00 24 1009.5
20260505195753 26 220 0.0 0.0 0.00 0.00 0.00 24 1009.4
20260505195251 26 201 0.0 0.0 0.00 0.00 0.00 23 1009.3
20260505194747 26 222 0.0 0.0 0.00 0.00 0.00 23 1009.6
20260505194244 26 240 1.6 3.2 0.00 0.00 0.00 24 1009.5
20260505193740 27 210 6.4 8.0 0.00 0.00 0.00 23 1010.0
20260505193238 26 236 1.6 1.6 0.00 0.00 0.00 24 1009.6
20260505192736 26 52 4.8 8.0 0.00 0.00 0.00 23 1010.1
20260505192233 26 351 4.8 8.0 0.00 0.00 0.00 24 1009.7
20260505191731 26 237 0.0 0.0 0.00 0.00 0.00 23 1009.8
20260505191230 26 223 3.2 4.8 0.00 0.00 0.00 25 1010.0
20260505190725 26 175 0.0 1.6 0.00 0.00 0.00 24 1010.0
20260505190225 27 192 1.6 1.6 0.00 0.00 0.00 24 1010.1
20260505185722 26 222 0.0 0.0 0.00 0.00 0.00 24 1009.7
20260505185218 26 218 1.6 1.6 0.00 0.00 0.00 24 1009.8
20260505184709 26 80 6.4 11.3 0.00 0.00 0.00 23 1009.7
20260505184206 26 248 3.2 4.8 0.00 0.00 0.00 24 1009.5
20260505183703 26 162 4.8 8.0 0.00 0.00 0.00 23 1010.0
20260505183200 26 229 1.6 3.2 0.00 0.00 0.00 26 1010.2
20260505182656 26 313 4.8 4.8 0.00 0.00 0.00 25 1010.3
20260505182154 26 74 0.0 1.6 0.00 0.00 0.00 25 1010.1
20260505181650 26 35 4.8 8.0 0.00 0.00 0.00 25 1010.2
20260505181148 26 225 3.2 8.0 0.00 0.00 0.00 25 1010.1
20260505180644 26 221 1.6 1.6 0.00 0.00 0.00 27 1010.3
20260505180141 25 230 3.2 3.2 0.00 0.00 0.00 26 1009.8
20260505175637 26 88 1.6 1.6 0.00 0.00 0.00 26 1010.1
20260505175134 26 259 4.8 9.7 0.00 0.00 0.00 26 1010.1
20260505174630 26 235 1.6 3.2 0.00 0.00 0.00 26 1010.4
20260505174126 25 203 6.4 9.7 0.00 0.00 0.00 26 1010.4
20260505173623 26 335 4.8 8.0 0.00 0.00 0.00 25 1010.4
20260505173119 25 177 3.2 4.8 0.00 0.00 0.00 27 1010.3
20260505172618 25 238 4.8 9.7 0.00 0.00 0.00 27 1010.4
20260505172114 25 222 1.6 1.6 0.00 0.00 0.00 27 1010.6
20260505171609 25 75 3.2 3.2 0.00 0.00 0.00 27 1010.7
20260505171106 25 233 1.6 1.6 0.00 0.00 0.00 27 1010.4
20260505170603 26 355 1.6 1.6 0.00 0.00 0.00 27 1010.5
20260505170059 25 257 4.8 4.8 0.00 0.00 0.00 27 1010.6
20260505165554 25 303 4.8 8.0 0.00 0.00 0.00 28 1010.3
20260505165050 25 81 0.0 0.0 0.00 0.00 0.00 29 1010.5
20260505164546 25 351 4.8 9.7 0.00 0.00 0.00 29 1011.0
20260505164044 24 251 0.0 0.0 0.00 0.00 0.00 30 1010.3
20260505163537 23 226 0.0 0.0 0.00 0.00 0.00 31 1010.4
20260505163033 23 213 0.0 1.6 0.00 0.00 0.00 30 1010.3
20260505162532 23 325 3.2 3.2 0.00 0.00 0.00 31 1010.1
20260505162029 23 348 8.0 14.5 0.00 0.00 0.00 31 1010.3
20260505161526 23 243 4.8 9.7 0.00 0.00 0.00 32 1009.7
20260505161023 22 335 6.4 12.9 0.00 0.00 0.00 32 1009.8
20260505160522 22 224 8.0 9.7 0.00 0.00 0.00 33 1010.4
20260505152957 21 235 4.8 4.8 0.00 0.00 0.00 34 1009.3
20260505152454 21 266 4.8 8.0 0.00 0.00 0.00 34 1009.2
20260505151949 21 308 11.3 14.5 0.00 0.00 0.00 33 1009.2
20260505151445 21 285 4.8 4.8 0.00 0.00 0.00 33 1008.9
20260505150943 21 52 6.4 8.0 0.00 0.00 0.00 32 1009.1
20260505150439 21 228 6.4 9.7 0.00 0.00 0.00 31 1009.7
20260505140404 21 263 6.4 8.0 0.00 0.00 0.00 28 1009.0
20260505124817 21 256 6.4 8.0 0.00 0.00 0.00 28 1007.6
20260505124314 21 186 4.8 9.7 0.00 0.00 0.00 28 1007.9
20260505123810 21 238 8.0 11.3 0.00 0.00 0.00 28 1007.9
20260505123307 21 304 6.4 9.7 0.00 0.00 0.00 28 1007.5
20260505122803 21 246 4.8 8.0 0.00 0.00 0.00 28 1007.5
20260505122301 21 238 8.0 9.7 0.00 0.00 0.00 27 1007.2
20260505121756 21 265 4.8 8.0 0.00 0.00 0.00 27 1007.1
20260505121254 21 223 3.2 4.8 0.00 0.00 0.00 27 1007.3
20260505120750 21 255 4.8 8.0 0.00 0.00 0.00 27 1007.3
20260505120246 21 223 4.8 4.8 0.00 0.00 0.00 27 1007.3
20260505115745 21 230 4.8 4.8 0.00 0.00 0.00 26 1007.2
20260505115243 21 248 3.2 4.8 0.00 0.00 0.00 26 1007.2
20260505114740 21 225 1.6 1.6 0.00 0.00 0.00 26 1007.1
20260505114236 22 225 6.4 8.0 0.00 0.00 0.00 25 1007.2
20260505113733 22 229 11.3 12.9 0.00 0.00 0.00 25 1007.2
20260505113229 22 289 9.7 12.9 0.00 0.00 0.00 25 1007.1
20260505112725 22 248 3.2 4.8 0.00 0.00 0.00 25 1007.2
20260505112223 22 271 6.4 9.7 0.00 0.00 0.00 25 1007.1
20260505111723 22 244 12.9 16.1 0.00 0.00 0.00 25 1006.9
20260505111219 22 259 11.3 16.1 0.00 0.00 0.00 24 1007.4
20260505110715 22 227 6.4 8.0 0.00 0.00 0.00 24 1007.0
20260505110213 22 272 6.4 8.0 0.00 0.00 0.00 24 1007.3
20260505102148 22 236 6.4 11.3 0.00 0.00 0.00 24 1007.0
20260505101647 22 270 11.3 16.1 0.00 0.00 0.00 24 1006.9
20260505101143 22 243 8.0 11.3 0.00 0.00 0.00 25 1006.9
20260505100639 22 265 4.8 8.0 0.00 0.00 0.00 25 1007.0
20260505100136 22 228 6.4 9.7 0.00 0.00 0.00 25 1007.2
20260505095632 22 230 8.0 11.3 0.00 0.00 0.00 25 1006.9
20260505095129 22 267 6.4 8.0 0.00 0.00 0.00 25 1007.0
20260505094626 21 228 8.0 12.9 0.00 0.00 0.00 25 1006.9
20260505094122 21 280 9.7 11.3 0.00 0.00 0.00 26 1006.7
20260505093618 21 307 14.5 20.9 0.00 0.00 0.00 26 1006.7
20260505093115 21 241 9.7 12.9 0.00 0.00 0.00 26 1006.5
20260505092612 21 252 8.0 11.3 0.00 0.00 0.00 26 1007.1
20260505092112 21 349 8.0 11.3 0.00 0.00 0.00 26 1006.8
20260505091608 21 248 8.0 11.3 0.00 0.00 0.00 26 1006.5
20260505091106 21 254 12.9 17.7 0.00 0.00 0.00 27 1006.7
20260505090604 21 261 8.0 11.3 0.00 0.00 0.00 27 1006.8
20260505085559 21 223 6.4 9.7 0.00 0.00 0.00 28 1006.5
20260505085057 21 228 11.3 14.5 0.00 0.00 0.00 28 1006.7
20260505084555 21 239 8.0 12.9 0.00 0.00 0.00 28 1006.5
20260505084052 21 252 3.2 4.8 0.00 0.00 0.00 28 1006.4
20260505083549 21 271 6.4 11.3 0.00 0.00 0.00 28 1006.4
20260505083046 21 237 4.8 4.8 0.00 0.00 0.00 28 1006.5
20260505082542 21 233 6.4 8.0 0.00 0.00 0.00 28 1006.4
20260505082039 21 227 6.4 9.7 0.00 0.00 0.00 28 1006.5
20260505081535 21 246 8.0 9.7 0.00 0.00 0.00 28 1006.8
20260505081032 21 233 4.8 8.0 0.00 0.00 0.00 28 1006.5
20260505080528 21 237 11.3 12.9 0.00 0.00 0.00 28 1006.4
20260505080025 21 207 6.4 9.7 0.00 0.00 0.00 28 1006.8
20260505075521 21 237 6.4 8.0 0.00 0.00 0.00 27 1006.8
20260505075018 21 225 3.2 3.2 0.00 0.00 0.00 27 1006.5
20260505074515 21 250 4.8 4.8 0.00 0.00 0.00 27 1006.7
20260505074013 21 229 4.8 8.0 0.00 0.00 0.00 27 1006.7
20260505073510 21 260 6.4 9.7 0.00 0.00 0.00 27 1006.8
20260505073008 21 246 4.8 8.0 0.00 0.00 0.00 27 1007.0
20260505072504 22 236 8.0 11.3 0.00 0.00 0.00 27 1006.5
20260505071959 22 203 3.2 3.2 0.00 0.00 0.00 27 1006.8
20260505071455 22 253 4.8 4.8 0.00 0.00 0.00 26 1007.0
20260505070954 22 263 6.4 8.0 0.00 0.00 0.00 26 1007.1
20260505070450 22 261 8.0 11.3 0.00 0.00 0.00 26 1006.9
20260505065946 22 246 8.0 9.7 0.00 0.00 0.00 26 1007.2
20260505065443 22 223 4.8 8.0 0.00 0.00 0.00 26 1007.1
20260505064939 22 267 6.4 8.0 0.00 0.00 0.00 25 1007.1
20260505064436 22 252 1.6 3.2 0.00 0.00 0.00 25 1007.1
20260505063935 22 251 8.0 9.7 0.00 0.00 0.00 25 1007.1
20260505063431 22 223 6.4 9.7 0.00 0.00 0.00 25 1007.0
20260505062927 22 228 6.4 8.0 0.00 0.00 0.00 25 1007.1
20260505062425 23 232 3.2 4.8 0.00 0.00 0.00 24 1007.1
20260505061921 23 254 6.4 9.7 0.00 0.00 0.00 24 1007.0
20260505061420 23 223 6.4 8.0 0.00 0.00 0.00 24 1006.9
20260505060917 23 193 4.8 4.8 0.00 0.00 0.00 23 1007.2
20260505060414 23 233 8.0 11.3 0.00 0.00 0.00 23 1007.3
20260505055910 23 250 9.7 16.1 0.00 0.00 0.00 22 1007.2
20260505055406 23 252 8.0 11.3 0.00 0.00 0.00 22 1007.3
20260505054903 23 210 9.7 11.3 0.00 0.00 0.00 23 1007.3
20260505054400 23 247 6.4 11.3 0.00 0.00 0.00 22 1007.3
20260505053858 23 212 9.7 16.1 0.00 0.00 0.00 22 1007.3
20260505053355 23 244 9.7 11.3 0.00 0.00 0.00 22 1007.4
20260505052852 23 218 3.2 4.8 0.00 0.00 0.00 22 1007.3
20260505052349 23 231 4.8 4.8 0.00 0.00 0.00 22 1007.4
20260505051846 23 261 9.7 11.3 0.00 0.00 0.00 21 1007.4
20260505051343 23 311 9.7 12.9 0.00 0.00 0.00 21 1007.3
20260505050841 24 246 8.0 9.7 0.00 0.00 0.00 21 1007.2
20260505050339 23 129 8.0 12.9 0.00 0.00 0.00 21 1007.1
20260505041307 23 248 16.1 25.7 0.00 0.00 0.00 21 1007.2
20260505040804 23 286 9.7 11.3 0.00 0.00 0.00 21 1007.5
20260505040301 23 266 6.4 9.7 0.00 0.00 0.00 21 1007.5
20260505035758 24 226 3.2 4.8 0.00 0.00 0.00 21 1007.4
20260505035253 24 271 11.3 14.5 0.00 0.00 0.00 21 1007.6
20260505034751 23 214 9.7 12.9 0.00 0.00 0.00 21 1007.6
20260505034248 23 225 8.0 9.7 0.00 0.00 0.00 21 1007.3
20260505033744 23 204 4.8 4.8 0.00 0.00 0.00 21 1007.4
20260505033242 23 229 6.4 8.0 0.00 0.00 0.00 21 1007.5
20260505032740 23 290 4.8 11.3 0.00 0.00 0.00 21 1007.4
20260505032235 24 249 4.8 8.0 0.00 0.00 0.00 21 1007.4
20260505031733 24 266 3.2 4.8 0.00 0.00 0.00 21 1007.4
20260505031229 24 229 4.8 4.8 0.00 0.00 0.00 21 1007.2
20260505030726 24 233 0.0 1.6 0.00 0.00 0.00 21 1007.4
20260505030222 24 236 3.2 4.8 0.00 0.00 0.00 21 1007.3
20260505025718 25 241 4.8 8.0 0.00 0.00 0.00 20 1007.2
20260505025217 25 204 3.2 3.2 0.00 0.00 0.00 20 1007.0
20260505024714 25 246 6.4 9.7 0.00 0.00 0.00 20 1007.1
20260505024211 25 233 4.8 4.8 0.00 0.00 0.00 20 1007.1
20260505023709 25 240 6.4 8.0 0.00 0.00 0.00 20 1006.9
20260505023206 25 222 4.8 8.0 0.00 0.00 0.00 20 1006.8
20260505022704 25 225 6.4 9.7 0.00 0.00 0.00 20 1006.7
20260505022200 26 220 4.8 4.8 0.00 0.00 0.00 19 1006.7
20260505021657 26 238 3.2 4.8 0.00 0.00 0.00 19 1006.4
20260505021154 26 239 8.0 9.7 0.00 0.00 0.00 19 1006.7
20260505020649 26 223 8.0 11.3 0.00 0.00 0.00 19 1006.4